Dashboard

GC4WD2V - VVV-Laakdal20

by VVV-Laakdal

published: Mon, 13 Jan 2014 12:41:38 pm

Certitude Solution



Puzzle stats
1308 Woo-Hoo!
425 D'Oh!
Latest activity:
Wed, 28 Dec 2016
Note that some of those attempts may have been anonymous.



You can subscribe to an RSS feed for:
 this puzzle
 VVV-Laakdal's puzzles
 puzzles in N51 E005 quadrangle
 puzzles in Antwerpen
 all puzzles

Your geocaching name is unknown, please sign in to identify yourself. How does it work?

Puzzle solvers, you can certify your solution here:
Show solution 
Show attempts 

(exact coordinates required)
  Stay anonymous

Certified solvers

RankUserTime (Brussels, Europe)
1.DuckyboyMon, 13 Jan 2014 1:14:52 pm
2.waldogMon, 13 Jan 2014 3:05:23 pm
3.tinrafMon, 13 Jan 2014 4:07:01 pm
4.postduif56Mon, 13 Jan 2014 7:55:41 pm
5.MREBMon, 13 Jan 2014 8:07:26 pm
6.kenzo en amberMon, 13 Jan 2014 8:34:50 pm
7.De 5 LinievosMon, 13 Jan 2014 9:38:50 pm
8.ErannMon, 13 Jan 2014 9:58:57 pm
9.Cocquyt IdesMon, 13 Jan 2014 11:00:05 pm
10.Familie HendrikxMon, 13 Jan 2014 11:29:28 pm
11.Doogie.beMon, 13 Jan 2014 11:57:46 pm
12.Geo-shuttleTue, 14 Jan 2014 1:03:30 am
13.johnny lightningTue, 14 Jan 2014 1:30:37 am
14.RUYATue, 14 Jan 2014 1:38:37 am
15.KeekjeTue, 14 Jan 2014 11:06:56 am
16.The BatTue, 14 Jan 2014 12:50:21 pm
17.BirreTue, 14 Jan 2014 1:42:41 pm
18.badmintonnersTue, 14 Jan 2014 1:48:12 pm
19.PenJTue, 14 Jan 2014 2:00:44 pm
20.de van nassautjesTue, 14 Jan 2014 2:18:18 pm
21.gabberjasperTue, 14 Jan 2014 3:57:37 pm
22.Fisty3Tue, 14 Jan 2014 4:09:36 pm
23.Roberto 01Tue, 14 Jan 2014 4:19:28 pm
24.GOTCHAYOSETue, 14 Jan 2014 5:36:45 pm
25.AlcecTue, 14 Jan 2014 6:10:03 pm
26.omaenopaTue, 14 Jan 2014 8:03:23 pm
27.krollenbolTue, 14 Jan 2014 8:17:06 pm
28.Team GeweiTue, 14 Jan 2014 8:21:50 pm
29.rudy86Tue, 14 Jan 2014 8:27:15 pm
30.Chupke&CoTue, 14 Jan 2014 8:39:49 pm
31.immerthoeveTue, 14 Jan 2014 8:48:37 pm
32.HEYTSETue, 14 Jan 2014 9:01:25 pm
33.Ricky50Tue, 14 Jan 2014 9:42:51 pm
34.jopeiroTue, 14 Jan 2014 9:50:44 pm
35.Fox64Tue, 14 Jan 2014 9:52:10 pm
36.rommarTue, 14 Jan 2014 10:17:17 pm
37.BelgiumJeepersTue, 14 Jan 2014 10:17:48 pm
38.SnuffelkeTue, 14 Jan 2014 11:07:34 pm
39.bobo bonbonWed, 15 Jan 2014 5:15:28 am
40.pietSchaftWed, 15 Jan 2014 10:57:21 am
41.tesslooWed, 15 Jan 2014 12:16:58 pm
42.ZwuzzeWed, 15 Jan 2014 1:57:47 pm
43.machpatWed, 15 Jan 2014 2:33:10 pm
44.rabbitsWed, 15 Jan 2014 2:37:34 pm
45.x-eliminatorWed, 15 Jan 2014 3:06:26 pm
46.GeroMinosWed, 15 Jan 2014 3:35:00 pm
47.KLUPPELWed, 15 Jan 2014 6:07:27 pm
48.HarristideWed, 15 Jan 2014 6:23:33 pm
49.ChristyvhWed, 15 Jan 2014 7:13:30 pm
50.KnokkertjeWed, 15 Jan 2014 7:38:43 pm
51.spiritsWed, 15 Jan 2014 8:23:19 pm
52.Het_fm-duoWed, 15 Jan 2014 8:30:27 pm
53.1TEAMWed, 15 Jan 2014 9:54:24 pm
54.DwiggerWed, 15 Jan 2014 10:35:36 pm
55.De SchootWed, 15 Jan 2014 11:14:55 pm
56.nickipelThu, 16 Jan 2014 6:21:25 am
57.franske2Thu, 16 Jan 2014 11:03:53 am
58.Davy&YentlThu, 16 Jan 2014 12:08:20 pm
59.GeoAraThu, 16 Jan 2014 12:49:24 pm
60.xedionThu, 16 Jan 2014 1:02:10 pm
61.VindenPuntNLThu, 16 Jan 2014 3:14:50 pm
62.TekkelThu, 16 Jan 2014 3:57:37 pm
63.tfxerThu, 16 Jan 2014 4:20:01 pm
64.SeetieThu, 16 Jan 2014 4:20:27 pm
65.pinarello43Thu, 16 Jan 2014 5:38:22 pm
66.lljbbThu, 16 Jan 2014 6:18:00 pm
67.aarciaThu, 16 Jan 2014 6:31:15 pm
68.JoanyoThu, 16 Jan 2014 10:30:57 pm
69.A.A.A.kesThu, 16 Jan 2014 10:36:01 pm
70.Mosterdpot&coThu, 16 Jan 2014 11:05:08 pm
71.garfunkel.beThu, 16 Jan 2014 11:13:52 pm
72.moriske1Fri, 17 Jan 2014 3:21:53 am
73.Onslow²Fri, 17 Jan 2014 9:51:17 am
74.dagger38Fri, 17 Jan 2014 12:39:46 pm
75.heksemie anirca62Fri, 17 Jan 2014 12:43:58 pm
76.ElcalaguFri, 17 Jan 2014 1:42:15 pm
77.zilumopFri, 17 Jan 2014 2:20:53 pm
78.JOTHBFri, 17 Jan 2014 2:46:31 pm
79.Cableguy666Fri, 17 Jan 2014 3:21:30 pm
80.breeddFri, 17 Jan 2014 3:44:51 pm
81.RHCVFri, 17 Jan 2014 4:34:06 pm
82.tootwoopFri, 17 Jan 2014 5:07:51 pm
83.WaaslanderFri, 17 Jan 2014 5:40:53 pm
84.BalthazaarFri, 17 Jan 2014 6:33:18 pm
85.JD85Fri, 17 Jan 2014 7:43:59 pm
86.wout147Fri, 17 Jan 2014 8:17:37 pm
87.Patkrimson2Fri, 17 Jan 2014 8:33:02 pm
88.delavriesFri, 17 Jan 2014 8:48:02 pm
89.tinobootFri, 17 Jan 2014 8:49:40 pm
90.TauspieFri, 17 Jan 2014 9:42:49 pm
91.lankatrasFri, 17 Jan 2014 9:43:38 pm
92.Klus43Fri, 17 Jan 2014 10:22:04 pm
93.jurgelleFri, 17 Jan 2014 11:11:59 pm
94.jos4711Fri, 17 Jan 2014 11:22:58 pm
95.jeanke53Sat, 18 Jan 2014 12:46:32 am
96.Gooz74Sat, 18 Jan 2014 10:59:30 am
97.kurtwuytsSat, 18 Jan 2014 1:39:24 pm
98.Davy1975Sat, 18 Jan 2014 2:50:00 pm
99.de-buertjesSat, 18 Jan 2014 5:03:08 pm
100.gunner4488Sat, 18 Jan 2014 9:06:40 pm
101.NenjitsSat, 18 Jan 2014 9:15:13 pm
102.Hebebe28Sat, 18 Jan 2014 9:26:01 pm
103.jochen419Sat, 18 Jan 2014 10:02:31 pm
104.amslouisSun, 19 Jan 2014 10:39:21 am
105.Team DamenwebSun, 19 Jan 2014 3:30:56 pm
106.Joe UltraSun, 19 Jan 2014 5:26:16 pm
107.springerkesSun, 19 Jan 2014 7:39:02 pm
108.S-n-PSun, 19 Jan 2014 7:51:57 pm
109.smeugskeSun, 19 Jan 2014 10:50:28 pm
110.Team VerostefMon, 20 Jan 2014 12:16:40 am
111.JanHMon, 20 Jan 2014 12:27:12 pm
112.BierbroederMon, 20 Jan 2014 12:36:37 pm
113.Bruges21Mon, 20 Jan 2014 2:36:03 pm
114.the 4 beesMon, 20 Jan 2014 3:10:14 pm
115.suske8Mon, 20 Jan 2014 6:43:30 pm
116.brumilhaagMon, 20 Jan 2014 7:45:18 pm
117.geosideMon, 20 Jan 2014 8:05:30 pm
118.clementoMon, 20 Jan 2014 9:00:13 pm
119.Dolende DingoMon, 20 Jan 2014 10:41:19 pm
120.purpowMon, 20 Jan 2014 10:53:09 pm
121.NaturepointMon, 20 Jan 2014 10:58:15 pm
122.trainfreakTue, 21 Jan 2014 10:29:28 am
123.YellowBlackArmyTue, 21 Jan 2014 10:43:00 am
124.Boris the 3Tue, 21 Jan 2014 2:07:04 pm
125.sukyTue, 21 Jan 2014 3:14:52 pm
126.TheDutchLetterboxersTue, 21 Jan 2014 7:29:43 pm
127.janvandevisTue, 21 Jan 2014 8:13:57 pm
128.yurrie-currieTue, 21 Jan 2014 9:31:18 pm
129.FoelablackenTue, 21 Jan 2014 9:43:08 pm
130.cake__3001Tue, 21 Jan 2014 11:06:08 pm
131.Geronimo62Tue, 21 Jan 2014 11:25:06 pm
132.nietjeWed, 22 Jan 2014 2:23:31 pm
133.de achterlichtjesWed, 22 Jan 2014 2:25:48 pm
134.mercator80Wed, 22 Jan 2014 4:12:39 pm
135.jv11096Wed, 22 Jan 2014 5:47:02 pm
136.HAPJ(e)Wed, 22 Jan 2014 10:28:02 pm
137.lauer10Wed, 22 Jan 2014 10:46:53 pm
138.JP&CDBWed, 22 Jan 2014 10:57:18 pm
139.Gentse HavikenThu, 23 Jan 2014 6:26:29 am
140.malidaThu, 23 Jan 2014 10:29:09 am
141.joske geronThu, 23 Jan 2014 7:26:47 pm
142.divemoThu, 23 Jan 2014 8:59:14 pm
143.eddyriaFri, 24 Jan 2014 10:05:58 am
144.TanyaBrigittaDodge64Fri, 24 Jan 2014 2:25:58 pm
145.EsteRietSat, 25 Jan 2014 12:15:24 pm
146.de bosvarkensSat, 25 Jan 2014 2:55:47 pm
147.bahetiSat, 25 Jan 2014 3:26:53 pm
148.GlanaSat, 25 Jan 2014 7:21:42 pm
149.jupke007Sat, 25 Jan 2014 7:40:45 pm
150.Team RotresSat, 25 Jan 2014 8:11:36 pm
151.MuzaikeSat, 25 Jan 2014 11:05:55 pm
152.AnnicksjeSun, 26 Jan 2014 12:23:45 pm
153.AmpDoctorSun, 26 Jan 2014 12:52:16 pm
154.GreetLucSun, 26 Jan 2014 1:01:01 pm
155.GitaristSun, 26 Jan 2014 4:14:12 pm
156.stofkoeSun, 26 Jan 2014 6:47:26 pm
157.sennekeSun, 26 Jan 2014 7:16:28 pm
158.leonidenSun, 26 Jan 2014 7:20:33 pm
159.geojorenSun, 26 Jan 2014 7:58:27 pm
160.ZommetjesMon, 27 Jan 2014 5:33:45 pm
161.GiniroverMon, 27 Jan 2014 7:34:57 pm
162.Stylo & JoskeMon, 27 Jan 2014 9:56:06 pm
163.snobe2002Tue, 28 Jan 2014 9:41:23 am
164.daluwTue, 28 Jan 2014 1:45:49 pm
165.Team BOJO NRWTue, 28 Jan 2014 4:03:36 pm
166.XistanceTue, 28 Jan 2014 6:10:09 pm
167.Boldy47Tue, 28 Jan 2014 8:21:10 pm
168.Team GrobbebolTue, 28 Jan 2014 8:40:38 pm
169.ynneb ne airTue, 28 Jan 2014 10:58:43 pm
170.quintusbWed, 29 Jan 2014 7:25:10 am
171.fourtimesfourWed, 29 Jan 2014 1:05:53 pm
172.D.T.M.Wed, 29 Jan 2014 3:59:37 pm
173.MiezekeWed, 29 Jan 2014 7:07:31 pm
174.jorokaWed, 29 Jan 2014 10:07:02 pm
175.Sjeik BurgieThu, 30 Jan 2014 11:40:29 am
176.luc-ingaThu, 30 Jan 2014 12:51:51 pm
177.BèrBreeThu, 30 Jan 2014 8:18:30 pm
178.dr.jekyl end ms.hydeFri, 31 Jan 2014 10:56:08 am
179.Bruintje.de.beerFri, 31 Jan 2014 2:43:41 pm
180.DiWiDiMaPaFri, 31 Jan 2014 3:44:57 pm
181.DIDICARSat, 1 Feb 2014 10:14:03 am
182.kr017697Sat, 1 Feb 2014 5:38:19 pm
183.BetsoSat, 1 Feb 2014 8:30:55 pm
184.vanthofSun, 2 Feb 2014 11:42:14 am
185.3piranja'sSun, 2 Feb 2014 11:46:56 am
186.stafkoartjeSun, 2 Feb 2014 8:34:29 pm
187.SuperBBMon, 3 Feb 2014 7:15:01 pm
188.DDVVJD11Mon, 3 Feb 2014 9:20:21 pm
189.lencomanMon, 3 Feb 2014 11:48:46 pm
190.nash1963Tue, 4 Feb 2014 7:22:15 am
191.Iron SixTue, 4 Feb 2014 8:38:39 am
192.gar+Tue, 4 Feb 2014 7:42:12 pm
193.ThorosTue, 4 Feb 2014 11:38:29 pm
194.le monocleWed, 5 Feb 2014 12:40:55 pm
195.Laroy1Wed, 5 Feb 2014 8:40:35 pm
196.RilderaThu, 6 Feb 2014 5:57:21 am
197.zandbuddiesThu, 6 Feb 2014 8:16:04 am
198.Basta18Thu, 6 Feb 2014 9:50:21 am
199.ontdekkersThu, 6 Feb 2014 6:18:35 pm
200.nancyvdbFri, 7 Feb 2014 12:05:49 am
201.DreiDFri, 7 Feb 2014 10:42:46 am
202.dexageFri, 7 Feb 2014 11:03:16 am
203.BartenEllenFri, 7 Feb 2014 2:31:51 pm
204.Katrien86Fri, 7 Feb 2014 2:35:26 pm
205.DolomitiFri, 7 Feb 2014 2:51:00 pm
206.WooD JrFri, 7 Feb 2014 5:02:58 pm
207.DnA-peltFri, 7 Feb 2014 8:49:53 pm
208.stefgeoSun, 9 Feb 2014 1:41:46 pm
209.djdaanSun, 9 Feb 2014 3:00:35 pm
210.biermanSun, 9 Feb 2014 3:39:06 pm
211.dertien_elfjeSun, 9 Feb 2014 8:28:42 pm
212.J_n_KMon, 10 Feb 2014 5:02:21 pm
213.opa1948Mon, 10 Feb 2014 7:04:37 pm
214.Dr Nick AsTue, 11 Feb 2014 12:49:42 pm
215.joris1984Tue, 11 Feb 2014 1:31:17 pm
216.WandelKuubTue, 11 Feb 2014 7:41:34 pm
217.KareltjeTue, 11 Feb 2014 8:48:08 pm
218.familiemaasWed, 12 Feb 2014 7:53:16 pm
219.GNB71Wed, 12 Feb 2014 11:13:53 pm
220.KRCGenkieThu, 13 Feb 2014 2:19:16 pm
221.qltelThu, 13 Feb 2014 7:01:33 pm
222.Ellen_7Thu, 13 Feb 2014 8:05:51 pm
223.-S@m-Thu, 13 Feb 2014 9:20:15 pm
224.doorienFri, 14 Feb 2014 12:03:18 am
225.langvangemertFri, 14 Feb 2014 6:59:44 pm
226.Anja-PeterSat, 15 Feb 2014 2:47:51 pm
227.voppersSat, 15 Feb 2014 6:48:16 pm
228.AkerhaMon, 17 Feb 2014 9:57:42 am
229.vlinder74Mon, 17 Feb 2014 9:59:02 pm
230.BeTh52Wed, 19 Feb 2014 7:17:17 pm
231.liliremFri, 21 Feb 2014 10:50:33 am
232.koetje1977Fri, 21 Feb 2014 8:20:17 pm
233.ernasprengerSat, 22 Feb 2014 3:06:44 pm
234.STONNEMon, 24 Feb 2014 8:52:41 pm
235.pompidoeTue, 25 Feb 2014 9:18:27 pm
236.AnthousaThu, 27 Feb 2014 7:59:05 am
237.De SprotjesThu, 27 Feb 2014 12:21:58 pm
238.Geostrumpf_TaffyThu, 27 Feb 2014 8:48:18 pm
239.rikskevanfikskeThu, 27 Feb 2014 9:03:25 pm
240.DUOMTMSun, 2 Mar 2014 10:27:42 am
241.Barco'kesSun, 2 Mar 2014 7:18:23 pm
242.kiekerjanMon, 3 Mar 2014 4:07:36 pm
243.schmaal166Tue, 4 Mar 2014 11:29:15 am
244.MaxvicWed, 5 Mar 2014 4:26:57 pm
245.Joske125Wed, 5 Mar 2014 9:26:57 pm
246.DirsonstiemmWed, 5 Mar 2014 9:58:31 pm
247.HlubThu, 6 Mar 2014 11:38:48 am
248.EburonianThu, 6 Mar 2014 10:19:29 pm
249.den tureFri, 7 Mar 2014 5:13:13 pm
250.pandalucSat, 8 Mar 2014 9:36:32 am
251.Felis LeoSat, 8 Mar 2014 7:04:47 pm
252.the groundhopperSun, 9 Mar 2014 2:05:13 pm
253.de2berkjesSun, 9 Mar 2014 9:17:38 pm
254.jessica.dierensMon, 10 Mar 2014 3:10:01 pm
255.VolletjesTue, 11 Mar 2014 12:25:22 am
256.LedSchock5Tue, 11 Mar 2014 10:15:22 pm
257.langevanstalTue, 11 Mar 2014 10:37:57 pm
258.BraBonWed, 12 Mar 2014 9:24:55 pm
259.PQ.Wed, 12 Mar 2014 10:37:58 pm
260.Jim morrison 2Thu, 13 Mar 2014 2:16:33 am
261.kazyThu, 13 Mar 2014 8:37:21 pm
262.Team LoewenjaegerFri, 14 Mar 2014 8:59:30 pm
263.fgrsSat, 15 Mar 2014 12:23:44 pm
264.LilafeeSat, 15 Mar 2014 4:52:50 pm
265.dalwalkersSun, 16 Mar 2014 12:12:22 am
266.dieselpompMon, 17 Mar 2014 11:47:22 am
267.wil&petMon, 17 Mar 2014 6:28:17 pm
268.wscherpsMon, 17 Mar 2014 9:16:32 pm
269.TeamspiritWed, 19 Mar 2014 4:01:26 pm
270.martini1999Wed, 19 Mar 2014 8:45:10 pm
271.NespekesFri, 21 Mar 2014 6:14:31 pm
272.Griml0rdFri, 21 Mar 2014 7:46:55 pm
273.Rabbitt HillSat, 22 Mar 2014 7:31:02 pm
274.Team Rocky BeachSun, 23 Mar 2014 12:42:45 pm
275.MycenaSun, 23 Mar 2014 3:17:07 pm
276.SieMichSun, 23 Mar 2014 6:08:03 pm
277.Team Blackfox3Sun, 23 Mar 2014 6:14:23 pm
278.DetSniper1C/1GrSun, 23 Mar 2014 6:53:50 pm
279.het genootschapMon, 24 Mar 2014 9:18:40 pm
280.scholtismanTue, 25 Mar 2014 10:12:15 am
281.Urco28Tue, 25 Mar 2014 11:38:00 am
282.Team-RoodkapjeTue, 25 Mar 2014 11:43:47 am
283.TinkelPhooTue, 25 Mar 2014 12:45:32 pm
284.columbosWed, 26 Mar 2014 9:58:43 pm
285.dirk007Thu, 27 Mar 2014 3:56:38 pm
286.niebobFri, 28 Mar 2014 11:40:57 am
287.de jokkeFri, 28 Mar 2014 11:48:32 pm
288.De SnuffelaarsSun, 30 Mar 2014 3:16:16 am
289.theraenwilbertSun, 30 Mar 2014 10:43:36 pm
290.claudlibTue, 1 Apr 2014 1:09:55 am
291.Alex 1Wed, 2 Apr 2014 1:16:33 pm
292.Ducky´sSun, 6 Apr 2014 2:27:36 pm
293.roelenannekeTue, 8 Apr 2014 11:33:54 am
294.FlowiesTue, 8 Apr 2014 11:35:06 am
295.labelflashTue, 8 Apr 2014 7:43:52 pm
296.RammelaarsWed, 9 Apr 2014 9:23:30 pm
297.cornekWed, 9 Apr 2014 9:23:46 pm
298.O-RunnerThu, 10 Apr 2014 5:44:40 pm
299.Geo-SabelSun, 13 Apr 2014 10:06:24 am
300.WijoSun, 13 Apr 2014 8:47:17 pm
301.fade2bladeTue, 15 Apr 2014 10:09:52 am
302.DeSchakeltjesTue, 15 Apr 2014 4:40:30 pm
303.de beestjesTue, 15 Apr 2014 11:22:49 pm
304.jerxjacWed, 16 Apr 2014 7:26:45 am
305.MarludWed, 16 Apr 2014 7:09:25 pm
306.annhenThu, 17 Apr 2014 8:20:46 pm
307.Dj FvMThu, 17 Apr 2014 10:14:04 pm
308.de genietertjesFri, 18 Apr 2014 6:05:33 pm
309.jocosiSat, 19 Apr 2014 9:35:05 pm
310.wandeltrakkerMon, 21 Apr 2014 4:44:18 pm
311.pecakoMon, 21 Apr 2014 7:47:45 pm
312.ThAnBoWed, 23 Apr 2014 10:51:06 am
313.tiguy000Wed, 23 Apr 2014 4:05:36 pm
314.DréVanTenkePolaWed, 23 Apr 2014 5:56:55 pm
315.emled+sharonimoWed, 23 Apr 2014 7:42:49 pm
316.IkkreThu, 24 Apr 2014 11:50:49 am
317.JurgenKThu, 24 Apr 2014 7:57:19 pm
318.SteffesofnuThu, 24 Apr 2014 7:59:37 pm
319.marcskepanThu, 24 Apr 2014 8:36:02 pm
320.mutseFri, 25 Apr 2014 4:30:57 pm
321.berepoesSat, 26 Apr 2014 1:17:04 am
322.Tree+SerrSun, 27 Apr 2014 7:25:23 am
323.KimielSun, 27 Apr 2014 11:17:34 am
324.WhiteWolfsSun, 27 Apr 2014 5:40:20 pm
325.tufferkesMon, 28 Apr 2014 1:49:05 pm
326.Grokky GroksonMon, 28 Apr 2014 9:23:09 pm
327.BrevechtTue, 29 Apr 2014 6:26:08 pm
328.SWIPEEWed, 30 Apr 2014 10:04:12 am
329.RoedemThu, 1 May 2014 4:08:09 pm
330.DappersteThu, 1 May 2014 8:09:24 pm
331.De Snoopy'sFri, 2 May 2014 1:34:14 pm
332.JAS teamFri, 2 May 2014 2:18:06 pm
333.digujobraSat, 3 May 2014 9:58:50 pm
334.DecootjeSun, 4 May 2014 1:11:19 pm
335.reygerSun, 4 May 2014 7:42:03 pm
336.mlsn1975Mon, 5 May 2014 5:15:51 pm
337.lunolunoTue, 6 May 2014 8:06:21 pm
338.DYINFri, 9 May 2014 2:20:21 pm
339.pakwegzesSat, 10 May 2014 11:48:48 am
340.ReaperX_BEMon, 12 May 2014 6:55:14 pm
341.marc en lutWed, 14 May 2014 9:24:31 pm
342.MikaïFri, 16 May 2014 1:49:53 pm
343.MoeliTecMon, 19 May 2014 11:26:26 pm
344.de haantjesWed, 21 May 2014 4:25:41 pm
345.NAPI :)Wed, 21 May 2014 6:56:06 pm
346.dev46Fri, 23 May 2014 10:24:31 am
347.gambleselgaeFri, 23 May 2014 7:32:41 pm
348.TEAM MOSCORFri, 23 May 2014 11:16:35 pm
349.Old DavisSat, 24 May 2014 11:08:59 am
350.Fruitmaker67Sat, 24 May 2014 4:44:39 pm
351.tempovisionSat, 24 May 2014 9:11:09 pm
352.tsaarSun, 25 May 2014 8:03:08 am
353.poemie2005Mon, 26 May 2014 10:45:01 pm
354.Marpat5957Wed, 28 May 2014 7:58:33 pm
355.maneblusser105Tue, 3 Jun 2014 11:34:55 am
356.The Happy'sTue, 3 Jun 2014 9:29:16 pm
357.eureka-!Wed, 4 Jun 2014 11:27:59 am
358.wildplasserWed, 4 Jun 2014 12:23:06 pm
359.De CashewsWed, 4 Jun 2014 6:57:11 pm
360.zonnebaarsThu, 5 Jun 2014 2:41:06 pm
361.wewalktoFri, 6 Jun 2014 11:41:52 pm
362.maboscoThu, 12 Jun 2014 8:57:47 pm
363.Sloefy'sSat, 14 Jun 2014 5:57:08 pm
364.mirdjSat, 14 Jun 2014 6:23:42 pm
365.quattro4Sun, 15 Jun 2014 9:01:43 pm
366.Thirteen00Mon, 16 Jun 2014 3:26:16 pm
367.sweetjoeSun, 22 Jun 2014 4:31:04 pm
368.wevertjesSun, 22 Jun 2014 9:29:55 pm
369.abdij-jongenFri, 27 Jun 2014 5:02:25 pm
370.VlevkeSat, 28 Jun 2014 9:08:02 pm
371.Luna49Mon, 30 Jun 2014 9:37:39 am
372.de_fretMon, 30 Jun 2014 8:36:01 pm
373.LuckyBasterdTue, 1 Jul 2014 8:04:41 am
374.ferrojojoFri, 4 Jul 2014 9:34:57 am
375.Op zoek naarFri, 4 Jul 2014 6:25:57 pm
376.Oetie2Sat, 5 Jul 2014 8:25:02 pm
377.StimpyktSun, 6 Jul 2014 2:38:34 pm
378.Anjer291Mon, 7 Jul 2014 12:15:27 pm
379.vinnesWed, 9 Jul 2014 8:05:33 pm
380.Kis1408Thu, 10 Jul 2014 3:23:26 pm
381.Witte1Fri, 11 Jul 2014 12:31:05 am
382.ADIMUSTue, 15 Jul 2014 2:26:52 pm
383.karamigTue, 15 Jul 2014 11:25:06 pm
384.kuipers.aTue, 22 Jul 2014 8:39:36 pm
385.Chake&YvesThu, 24 Jul 2014 5:16:03 pm
386.rednorbSat, 26 Jul 2014 5:28:51 pm
387.lucvosSun, 27 Jul 2014 10:51:49 am
388.cachecache13Mon, 28 Jul 2014 1:50:51 am
389.leroy405Mon, 28 Jul 2014 4:00:01 pm
390.daniella&julienMon, 28 Jul 2014 10:58:25 pm
391.crusherrMon, 4 Aug 2014 10:04:57 pm
392.7footgiantTue, 5 Aug 2014 12:37:54 am
393.delange001Tue, 5 Aug 2014 8:10:38 am
394.break54Fri, 8 Aug 2014 9:40:39 pm
395.Feles LascivaSat, 9 Aug 2014 9:10:46 am
396.LabarcaSat, 9 Aug 2014 7:17:03 pm
397.lilonanisebMon, 11 Aug 2014 10:39:17 pm
398.DeWolffiesTue, 12 Aug 2014 8:20:07 am
399.Kievit74Tue, 12 Aug 2014 9:27:48 pm
400.Willem-JanThu, 14 Aug 2014 1:12:11 am
401.rumo1Thu, 14 Aug 2014 5:41:50 pm
402.dibo jenoThu, 14 Aug 2014 11:26:34 pm
403.Lighthouse777Fri, 15 Aug 2014 10:23:24 pm
404.Ann-HeinTue, 19 Aug 2014 7:43:05 pm
405.*JoMo*Fri, 22 Aug 2014 2:15:05 pm
406.snollebollekesFri, 22 Aug 2014 2:23:58 pm
407.UnderkofferFri, 29 Aug 2014 4:27:53 pm
408.MeullemSat, 30 Aug 2014 10:49:49 am
409.De PlassiesTue, 2 Sep 2014 7:26:16 pm
410.GeohunterVBWed, 3 Sep 2014 10:58:55 pm
411.gr briesThu, 4 Sep 2014 5:34:18 pm
412.TerMoerkesSat, 6 Sep 2014 6:26:16 pm
413.pietjepukkelWed, 10 Sep 2014 8:15:00 pm
414.stunkelThu, 11 Sep 2014 9:24:00 pm
415.Random StrangerFri, 12 Sep 2014 6:53:15 pm
416.toverke20000Fri, 12 Sep 2014 7:19:57 pm
417.polderfamilySat, 13 Sep 2014 7:56:53 pm
418.L EN LSat, 13 Sep 2014 10:20:54 pm
419.Flippie FlinkMon, 15 Sep 2014 2:19:38 pm
420.ilbiondinoMon, 15 Sep 2014 9:02:42 pm
421.Bulsara77Mon, 22 Sep 2014 12:56:18 am
422.JMolsMon, 22 Sep 2014 10:24:08 am
423.PEKA71Mon, 22 Sep 2014 9:22:05 pm
424.volleymikeFri, 26 Sep 2014 11:58:59 am
425.BenjiiiHFri, 26 Sep 2014 2:44:49 pm
426.KoenGoosSun, 28 Sep 2014 3:02:34 pm
427.Kapitän Blaubär 78Tue, 30 Sep 2014 1:19:35 am
428.cuppy1963Tue, 30 Sep 2014 8:41:49 pm
429.groep bellaWed, 1 Oct 2014 8:57:15 pm
430.Phil-DieThu, 2 Oct 2014 7:46:07 pm
431.Krikri28Fri, 3 Oct 2014 5:38:27 pm
432.jobi44Sun, 5 Oct 2014 1:35:24 pm
433.Team_SteCySun, 5 Oct 2014 1:43:18 pm
434.taekwondodoMon, 6 Oct 2014 11:57:05 pm
435.whacFri, 10 Oct 2014 8:44:13 pm
436.Ver&LatSat, 11 Oct 2014 10:57:34 pm
437.sweetlakecitySun, 12 Oct 2014 1:56:04 pm
438.countryboy1971Mon, 13 Oct 2014 1:20:24 am
439.verstraete-latruweTue, 21 Oct 2014 9:43:19 am
440.MilliMolliTue, 21 Oct 2014 11:33:33 am
441.FinduilasSat, 25 Oct 2014 12:56:53 pm
442.hetseskeSun, 26 Oct 2014 11:06:19 pm
443.flupie007Sun, 2 Nov 2014 2:21:12 pm
444.hermjoSun, 2 Nov 2014 8:45:42 pm
445.Lies&&TomMon, 3 Nov 2014 9:25:15 pm
446.Kwak & BoemelThu, 6 Nov 2014 7:35:38 pm
447.KoempelFri, 7 Nov 2014 11:32:42 am
448.ShibakeSun, 9 Nov 2014 10:55:35 pm
449.dikkkMon, 10 Nov 2014 9:49:20 am
450.Kilroy B.Thu, 13 Nov 2014 9:55:50 pm
451.tomkat1971Mon, 17 Nov 2014 5:17:37 pm
452.mapa05Mon, 17 Nov 2014 8:25:20 pm
453.Hydro1980Tue, 18 Nov 2014 11:58:00 am
454.GwennyWed, 19 Nov 2014 11:12:38 am
455.CruxkeSun, 23 Nov 2014 9:12:52 pm
456.gaudiumMon, 24 Nov 2014 8:03:14 pm
457.MiseurWed, 26 Nov 2014 7:15:43 pm
458.freyke82Fri, 28 Nov 2014 10:59:18 am
459.DAVINKIThu, 4 Dec 2014 2:20:56 pm
460.SconeloFri, 5 Dec 2014 4:58:13 pm
461.MarkoLocoMon, 8 Dec 2014 1:34:46 pm
462.wimmmperSat, 13 Dec 2014 11:25:36 am
463.ikzentSat, 13 Dec 2014 1:58:57 pm
464.wilcarThu, 18 Dec 2014 9:50:19 pm
465.AirsharkIIMon, 22 Dec 2014 3:49:14 am
466.jan972Fri, 26 Dec 2014 8:13:06 pm
467.sesamstraatploegSat, 27 Dec 2014 10:47:49 pm
468.xizatMon, 29 Dec 2014 3:13:10 pm
469.ibuzzeSun, 4 Jan 2015 3:14:20 pm
470.vasco81Wed, 7 Jan 2015 4:36:09 pm
471.PittekesThu, 8 Jan 2015 11:52:39 am
472.Lindi14Fri, 9 Jan 2015 1:37:23 pm
473.vloerhosteskeSat, 10 Jan 2015 8:10:26 pm
474.De GiebelgeitjesSun, 11 Jan 2015 9:39:57 pm
475.Renrew1968Mon, 12 Jan 2015 8:38:36 pm
476.Hammer of DoomMon, 12 Jan 2015 10:56:18 pm
477.nicknac01Fri, 16 Jan 2015 4:30:08 pm
478.On7dcFri, 16 Jan 2015 7:15:28 pm
479.KoidreamSun, 18 Jan 2015 4:50:03 pm
480.team GeomarTue, 20 Jan 2015 11:02:45 pm
481.VW T2Mon, 26 Jan 2015 3:45:17 pm
482.BulkieTue, 27 Jan 2015 7:39:24 pm
483.Dany65Wed, 28 Jan 2015 5:37:56 pm
484.samboanroSun, 1 Feb 2015 5:13:47 pm
485.Britt en BregoSun, 1 Feb 2015 9:21:12 pm
486.wasserijsThu, 5 Feb 2015 11:14:20 am
487.vesje49Fri, 6 Feb 2015 2:23:05 pm
488.Walker74Sat, 7 Feb 2015 11:07:37 am
489.AmidalaSat, 7 Feb 2015 4:46:59 pm
490.RuMy2650Tue, 10 Feb 2015 9:20:14 am
491.MarioAnTue, 10 Feb 2015 9:25:08 am
492.FRAEMYSat, 21 Feb 2015 12:29:35 pm
493.Running SandSat, 21 Feb 2015 6:19:48 pm
494.moddercrosserSun, 22 Feb 2015 4:35:07 pm
495.stoemperMon, 23 Feb 2015 7:19:11 pm
496.fr@ b.Wed, 25 Feb 2015 6:01:05 pm
497.dagtrippers8486Wed, 25 Feb 2015 7:33:25 pm
498.4LinuxWed, 25 Feb 2015 8:49:35 pm
499.jjt007Wed, 25 Feb 2015 11:33:07 pm
500.DenDulleThu, 26 Feb 2015 9:38:59 pm
501.Kare8384Fri, 27 Feb 2015 4:28:55 pm
502.bebergSat, 28 Feb 2015 8:13:27 pm
503.tanjavdcSun, 1 Mar 2015 2:41:37 pm
504.De-ganzenhoedersTue, 10 Mar 2015 9:54:22 pm
505.HeeblumkeWed, 11 Mar 2015 3:14:11 pm
506.ronniepmvwSat, 14 Mar 2015 5:39:45 pm
507.poetjesSat, 14 Mar 2015 8:29:48 pm
508.AgentXLMon, 16 Mar 2015 1:07:45 pm
509.chantheMon, 16 Mar 2015 5:52:29 pm
510.gwen1810Wed, 18 Mar 2015 9:21:03 pm
511.KesannyThu, 19 Mar 2015 3:57:02 pm
512.plimkieSat, 21 Mar 2015 4:31:17 pm
513.soyoyastTue, 24 Mar 2015 10:54:44 am
514.SecretCaveWed, 25 Mar 2015 7:30:26 pm
515.pat_edThu, 26 Mar 2015 8:41:39 pm
516.RijklandMon, 30 Mar 2015 2:00:56 am
517.lipiboMon, 30 Mar 2015 4:39:34 pm
518.Team JulleminaThu, 2 Apr 2015 8:53:42 pm
519.PingolinFri, 3 Apr 2015 10:50:58 am
520.sauvillerWed, 8 Apr 2015 12:52:09 pm
521.PoepoeThu, 9 Apr 2015 10:36:42 pm
522.paradokskeMon, 13 Apr 2015 11:20:45 am
523.JoMaLoLiMon, 13 Apr 2015 4:59:16 pm
524.tonmar47Wed, 15 Apr 2015 12:11:12 am
525.Calle & BakkiTue, 21 Apr 2015 11:27:53 pm
526.il imperiestroMon, 27 Apr 2015 10:37:04 pm
527.sloefke5Wed, 29 Apr 2015 8:13:15 pm
528.Matthias999Fri, 1 May 2015 8:15:55 pm
529.GeowiceSat, 2 May 2015 10:27:34 pm
530.BergheboySun, 3 May 2015 9:53:48 am
531.Team WoubeMon, 4 May 2015 8:18:55 pm
532.lr128247Tue, 5 May 2015 7:13:15 pm
533.dapastniWed, 6 May 2015 6:31:26 pm
534.maccesSat, 9 May 2015 8:01:05 am
535.Jan De PauwMon, 11 May 2015 2:23:39 pm
536.Team KemnaTue, 12 May 2015 4:17:10 pm
537.MichelitisThu, 14 May 2015 8:28:47 am
538.WorkOut2019Thu, 14 May 2015 4:43:01 pm
539.koperenkogelThu, 14 May 2015 10:21:57 pm
540.GreetgeFri, 22 May 2015 9:00:17 pm
541.PlonsDGKMon, 1 Jun 2015 3:51:39 pm
542.TORIBEXMon, 1 Jun 2015 7:44:23 pm
543.TingioTue, 2 Jun 2015 9:49:50 pm
544.pfisserThu, 4 Jun 2015 9:56:56 pm
545.AnSonicMon, 8 Jun 2015 1:55:55 pm
546.pyromanaWed, 10 Jun 2015 10:59:42 am
547.JacqAnMon, 15 Jun 2015 6:21:41 pm
548.jehan the walkingmanFri, 19 Jun 2015 8:43:05 pm
549.WilfriedvpSun, 21 Jun 2015 10:43:45 am
550.FastekeSun, 21 Jun 2015 4:30:48 pm
551.cindywoefTue, 23 Jun 2015 11:00:31 am
552.svekke_cFri, 26 Jun 2015 7:42:54 pm
553.patriekskeSun, 28 Jun 2015 11:15:01 pm
554.snoopyke21Tue, 30 Jun 2015 8:14:37 pm
555.lien&jorenSun, 5 Jul 2015 1:43:59 pm
556.rheawoefSun, 5 Jul 2015 7:25:49 pm
557.gitert4Sun, 5 Jul 2015 8:54:40 pm
558.NimfaBłotnaFri, 10 Jul 2015 11:09:48 am
559.Peter & KatrijnWed, 15 Jul 2015 11:55:45 am
560.WDFLWed, 15 Jul 2015 6:34:36 pm
561.margriet2Mon, 20 Jul 2015 10:16:48 pm
562.sentinel2004Tue, 21 Jul 2015 11:28:26 am
563.hawahisiWed, 22 Jul 2015 1:44:05 pm
564.Smitje49Wed, 22 Jul 2015 4:22:39 pm
565.De_ClubClubWed, 29 Jul 2015 10:24:22 pm
566.ezeltje01+grijzeduifThu, 30 Jul 2015 8:44:48 pm
567.SibalaFri, 31 Jul 2015 11:13:27 am
568.De sloeberkes4Sun, 2 Aug 2015 9:01:10 am
569.gied54Sun, 2 Aug 2015 7:30:22 pm
570.Daf de GirafFri, 7 Aug 2015 3:31:24 pm
571.klokjeFri, 7 Aug 2015 11:33:36 pm
572.Stef & KristelMon, 10 Aug 2015 4:03:30 pm
573.geohakkeMon, 10 Aug 2015 10:12:56 pm
574.florsa1717Sat, 15 Aug 2015 12:41:26 pm
575.SteenezelSat, 15 Aug 2015 5:33:15 pm
576.Veerle TFri, 21 Aug 2015 2:14:52 pm
577.kipling2006Tue, 25 Aug 2015 10:58:32 am
578.ChouffkeThu, 27 Aug 2015 10:09:27 pm
579.HekkieSun, 6 Sep 2015 9:45:51 pm
580.schietepoesTue, 8 Sep 2015 9:12:49 pm
581.LambrafWed, 9 Sep 2015 10:21:04 pm
582.kurtje13Fri, 11 Sep 2015 9:21:40 am
583.kim2804Mon, 14 Sep 2015 10:45:34 pm
584.SchanullaThu, 17 Sep 2015 1:09:14 pm
585.elpierroSat, 19 Sep 2015 11:15:54 am
586.Verschueren LMon, 21 Sep 2015 9:21:40 am
587.botsbalMon, 21 Sep 2015 6:04:19 pm
588.CintaKJKSun, 27 Sep 2015 8:39:46 pm
589.modderpootjesTue, 29 Sep 2015 5:06:53 pm
590.Jens VLWed, 7 Oct 2015 3:26:35 pm
591.IvaliseSat, 10 Oct 2015 1:12:21 pm
592.M.B.E.S.Sat, 10 Oct 2015 2:09:40 pm
593.SiedowaMon, 12 Oct 2015 2:54:50 pm
594.BeEvyWed, 14 Oct 2015 1:31:16 pm
595.kevertjeFri, 16 Oct 2015 2:52:30 pm
596.mikatiniSun, 18 Oct 2015 12:34:43 am
597.goldgrubeSun, 18 Oct 2015 1:07:21 am
598.Hassie8720Sun, 18 Oct 2015 4:19:21 pm
599.ellilauwThu, 22 Oct 2015 9:46:16 pm
600.MardetSat, 24 Oct 2015 8:07:25 pm
601.Cindy & davySun, 25 Oct 2015 10:30:53 pm
602.WaFiKriDiWed, 28 Oct 2015 7:08:18 pm
603.mitch.croesFri, 30 Oct 2015 9:51:04 pm
604.dedamesSun, 15 Nov 2015 8:51:58 pm
605.koenenleencasteleynWed, 18 Nov 2015 8:14:43 am
606.infinity_mcThu, 19 Nov 2015 4:30:27 am
607.SLMVFri, 20 Nov 2015 10:19:22 pm
608.team_datoSat, 21 Nov 2015 10:07:03 am
609.roodmusSun, 22 Nov 2015 4:22:04 pm
610.EllenAdriaensenTue, 24 Nov 2015 1:30:29 pm
611.team edvollegasWed, 25 Nov 2015 3:53:02 pm
612.Reynders JPSun, 6 Dec 2015 11:02:50 am
613.The_MazeRunnerMon, 7 Dec 2015 3:12:57 pm
614.FoezyThu, 10 Dec 2015 11:14:47 am
615.daborThu, 10 Dec 2015 7:36:03 pm
616.Lady LinnekeSun, 13 Dec 2015 2:42:45 pm
617.ams_eeTue, 15 Dec 2015 8:24:01 pm
618.Nemo ZardixMon, 21 Dec 2015 1:49:13 pm
619.colonelbTue, 22 Dec 2015 4:38:37 pm
620.MadDogJackWed, 30 Dec 2015 11:33:44 am
621.ida oThu, 31 Dec 2015 3:27:34 pm
622.StyredsSat, 2 Jan 2016 3:51:00 pm
623.luccecSat, 2 Jan 2016 6:10:10 pm
624.CaracalShanMon, 4 Jan 2016 9:28:40 pm
625.klavertje6Thu, 7 Jan 2016 3:32:03 pm
626.Team STVThu, 7 Jan 2016 6:50:27 pm
627.jiske56Sun, 10 Jan 2016 8:43:30 pm
628.bijthFri, 15 Jan 2016 1:59:48 pm
629.andy086Wed, 20 Jan 2016 5:09:28 pm
630.JorneMWed, 20 Jan 2016 9:48:15 pm
631.michielvdeThu, 28 Jan 2016 7:34:33 pm
632.WIGWIGWAMWAMSat, 30 Jan 2016 6:56:10 pm
633.xalalojeThu, 4 Feb 2016 12:21:28 pm
634.beverkeSat, 6 Feb 2016 1:42:42 pm
635.WiHa1106Mon, 8 Feb 2016 7:22:51 pm
636.DaCo1979Mon, 8 Feb 2016 10:08:38 pm
637.an_en_erikSun, 14 Feb 2016 8:55:17 pm
638.jollyclubWed, 17 Feb 2016 11:06:59 am
639.Klein KölleSat, 20 Feb 2016 11:31:47 am
640.BoltblueWed, 24 Feb 2016 6:59:16 pm
641.GrottemWed, 24 Feb 2016 11:02:40 pm
642.popfexTue, 1 Mar 2016 3:53:25 pm
643.zakagendaThu, 3 Mar 2016 12:17:55 am
644.AllFonsSat, 5 Mar 2016 5:17:55 pm
645.joke18Tue, 8 Mar 2016 3:13:21 pm
646.beezzzWed, 9 Mar 2016 8:59:30 pm
647.Janne & GertMon, 14 Mar 2016 10:23:49 am
648.AdrieA3Mon, 21 Mar 2016 11:27:29 pm
649.the_fonzyTue, 22 Mar 2016 10:54:11 am
650.katleenmarcoSun, 27 Mar 2016 10:13:54 pm
651.HarindaSun, 27 Mar 2016 11:22:33 pm
652.rode riddersSat, 9 Apr 2016 9:05:53 pm
653.OpaDusMon, 11 Apr 2016 6:58:01 pm
654.kimeefSat, 16 Apr 2016 9:16:01 pm
655.2PintenSun, 17 Apr 2016 7:54:49 am
656.diedje54Tue, 19 Apr 2016 11:03:44 pm
657.mr. muscleSun, 24 Apr 2016 8:55:10 am
658.HapersSun, 1 May 2016 8:09:45 pm
659.jan_en_lutSat, 7 May 2016 4:04:12 pm
660.homeboySun, 8 May 2016 8:13:55 pm
661.TeamKnippeTue, 10 May 2016 3:14:10 pm
662.WilallSun, 15 May 2016 1:23:13 pm
663.DaicootjeMon, 16 May 2016 5:45:49 pm
664.nordicwalkSun, 22 May 2016 12:18:06 am
665.MichaelVOWed, 25 May 2016 12:32:53 pm
666.D&D1103Thu, 26 May 2016 2:26:50 pm
667.de avonturiersFri, 27 May 2016 9:11:46 pm
668.pelle_25Sun, 29 May 2016 11:01:49 pm
669.StuiterkuikenThu, 9 Jun 2016 1:01:03 pm
670.de kanaalmanFri, 10 Jun 2016 6:49:52 pm
671.rnannesSun, 12 Jun 2016 11:33:56 am
672.PeripateticiMon, 13 Jun 2016 5:17:27 pm
673.omamarelWed, 22 Jun 2016 5:25:24 pm
674.Patrick67.Thu, 7 Jul 2016 11:13:21 pm
675.bestplayer1000Wed, 13 Jul 2016 2:12:44 pm
676.Spanco&KippyThu, 14 Jul 2016 10:45:31 pm
677.victor1oomsThu, 21 Jul 2016 11:59:27 am
678.remokeFri, 22 Jul 2016 11:17:00 pm
679.BlackCookiesSun, 24 Jul 2016 12:38:06 am
680.PulpFactoryTue, 26 Jul 2016 4:31:58 pm
681.friso923Wed, 27 Jul 2016 8:26:52 pm
682.Team DaajtMon, 1 Aug 2016 10:09:26 pm
683.gerritvanwoerkomTue, 9 Aug 2016 10:42:34 pm
684.topzoekertjeWed, 10 Aug 2016 5:11:22 pm
685.Mathieu1979Thu, 11 Aug 2016 11:52:57 am
686.Lode65Fri, 12 Aug 2016 7:36:31 pm
687.pat2609Wed, 17 Aug 2016 9:12:18 am
688.Daan43Wed, 17 Aug 2016 7:40:21 pm
689.johannemieSun, 21 Aug 2016 1:32:15 pm
690.biebieThu, 25 Aug 2016 5:36:36 pm
691.SoemirMon, 29 Aug 2016 6:34:32 pm
692.BriSan.Tue, 30 Aug 2016 12:05:29 am
693.kato3Tue, 30 Aug 2016 8:07:26 pm
694.DWX DeluxeFri, 2 Sep 2016 2:06:49 am
695.diatrickSat, 10 Sep 2016 12:30:03 pm
696.Lady_Sabrina_&_CoSun, 11 Sep 2016 9:54:43 pm
697.Dany 139Tue, 20 Sep 2016 9:15:52 am
698.AwesoMeowSun, 25 Sep 2016 10:47:34 pm
699.Aga.Mem.NonWed, 5 Oct 2016 9:28:14 am
700.paard185Sat, 8 Oct 2016 2:10:41 pm
701.PrasarSun, 9 Oct 2016 10:34:04 pm
702.GARGAMEL 007Mon, 10 Oct 2016 4:06:02 pm
703.CrazyMuppetsFri, 14 Oct 2016 9:40:50 am
704.tcr1978Fri, 14 Oct 2016 9:43:32 pm
705.McDuvelWed, 19 Oct 2016 2:53:59 pm
706.smansieWed, 19 Oct 2016 7:57:45 pm
707.kadeekesSat, 22 Oct 2016 2:02:14 am
708.HeimbiegelTue, 25 Oct 2016 1:13:58 pm
709.rikske62Sun, 30 Oct 2016 11:28:40 am
710.xeniavTue, 22 Nov 2016 12:10:47 pm
711.BVMJWed, 23 Nov 2016 6:20:19 pm
712.plinTue, 29 Nov 2016 7:13:31 pm
713.filip85Sun, 4 Dec 2016 7:50:50 pm
714.zonnehoekMon, 5 Dec 2016 3:49:59 pm
715.MitijTue, 6 Dec 2016 1:10:09 pm
716.LottyTue, 13 Dec 2016 2:38:40 pm
717.LavaMotjesWed, 28 Dec 2016 10:53:18 pm